Tracking 28790 objects as of 19-Apr-2024
HD Live streaming from Space Station
objects crossing your sky now

DELTA 1 DEB

Track DELTA 1 DEB now!
10-day predictions


NORAD ID: 37649
Int'l Code: 1978-026JL
Perigee: 900.5 km
Apogee: 985.4 km
Inclination: 99.0 °
Period: 103.7 minutes
Semi major axis: 7313 km
RCS: 0.0096 m2 (small)
Launch date: March 5, 1978
Source: United States (US)
Launch site: AIR FORCE WESTERN TEST RANGE (AFWTR)

Note: This is SATELLITE DEBRIS
Your satellite tracking list
Your tracking list is empty




NASA's NSSDC Master Catalog

Two Line Element Set (TLE):
1 37649U 78026JL  24107.10564893  .00000153  00000-0  16226-3 0  9991
2 37649  98.9965  52.0639 0058021  39.8189 320.7205 13.87958901 62644
Source of the keplerian elements: AFSPC